Volver al catálogo

GOES 12

ActivoMeteoGEO
NORAD 26871·PAYLOAD·🇺🇸 United States

Lanzado Jul 23, 2001 desde Cape Canaveral Space Force Station

Loading…

TLE

ActualizadoSource: Space-Track

Época: Sep 14, 2026, 13:28 UTC

1 26871U 01031A   26257.56146247  .00000054  00000-0  00000-0 0  9995
2 26871  12.3440  36.4717 0005435 286.8765  99.2037  0.99136004 91650

Sigue GOES 12 en tiempo real con AllMySat

Download on the App Store